Location: Los Gatos B&B
(42.6926°N, 77.0646°W)
Time: 17:26:37
(UTC-05:00)

Cosmos 2263 Rocket - Visible Passes

Search period start: 26 January 2015 00:00
Search period end: 05 February 2015 00:00
Orbit: 822 x 851 km, 71.0° (Epoch: 25 January)

Date Brightness Start Highest point End Pass type
(mag) Time Alt. Az. Time Alt. Az. Time Alt. Az.
27 Jan 4.6 20:01:59 10° N 20:02:17 11° N 20:02:17 11° N visible
28 Jan 4.3 19:45:26 10° N 19:46:19 13° N 19:46:19 13° N visible
29 Jan 4.1 19:28:53 10° N 19:30:24 15° NNE 19:30:24 15° NNE visible
29 Jan 5.0 21:11:59 10° NNW 21:12:08 11° NNW 21:12:08 11° NNW visible
30 Jan 3.9 19:12:21 10° N 19:14:34 17° NNE 19:14:34 17° NNE visible
30 Jan 4.6 20:55:19 10° NNW 20:56:18 15° NNW 20:56:18 15° NNW visible
31 Jan 3.7 18:55:50 10° N 18:58:48 18° NE 18:58:48 18° NE visible
31 Jan 4.2 20:38:40 10° NNW 20:40:32 22° NNW 20:40:32 22° NNW visible
01 Feb 3.7 18:39:19 10° N 18:42:56 17° NE 18:43:08 17° NE visible
01 Feb 3.6 20:22:01 10° NNW 20:24:53 31° NNW 20:24:53 31° NNW visible
02 Feb 3.7 18:22:48 10° N 18:26:13 16° NE 18:27:37 15° ENE visible
02 Feb 2.9 20:05:23 10° NNW 20:09:22 47° NNW 20:09:22 47° NNW visible
03 Feb 3.8 18:06:20 10° N 18:09:29 15° NE 18:12:15 11° ENE visible
03 Feb 2.1 19:48:44 10° NNW 19:54:01 75° N 19:54:01 75° N visible
03 Feb 5.0 21:34:48 10° WNW 21:35:48 12° WNW 21:35:48 12° WNW visible
04 Feb 2.0 19:32:06 10° NNW 19:37:49 76° ENE 19:38:55 58° SE visible
04 Feb 4.7 21:17:51 10° WNW 21:20:42 15° W 21:20:42 15° W visible
